• In Moldova, Republic
  • List of Countries
  • For 7 days
  • Water Temperature
  • Satellite Maps
  • Weather Map
  • Weather Widgets
  • user-avatar
    Login

    Hourly Weather Malanje

    Today, 21 July, Friday

    Time Temperature Precipitation Wind Pressure Humidity
    00:00 +22°C° 0 mm 1 mps 666 mmHg 37%
    01:00 +21°C° 0 mm 1 mps 666 mmHg 46%
    02:00 +20°C° 0 mm 1 mps 666 mmHg 50%
    03:00 +19°C° 0 mm 1 mps 666 mmHg 55%
    04:00 +19°C° 0 mm 1 mps 665 mmHg 59%
    05:00 +19°C° 0 mm 1 mps 666 mmHg 57%
    06:00 +19°C° 0 mm 1 mps 666 mmHg 54%
    07:00 +19°C° 0 mm 1 mps 666 mmHg 51%
    08:00 +22°C° 0 mm 1 mps 667 mmHg 40%
    09:00 +26°C° 0 mm 2 mps 668 mmHg 29%
    10:00 +30°C° 0 mm 2 mps 669 mmHg 17%
    11:00 +31°C° 0 mm 2 mps 669 mmHg 15%
    12:00 +34°C° 0 mm 2 mps 668 mmHg 13%
    13:00 +35°C° 0 mm 1 mps 668 mmHg 10%
    14:00 +35°C° 0 mm 1 mps 667 mmHg 10%
    15:00 +35°C° 0 mm 1 mps 667 mmHg 10%
    16:00 +34°C° 0 mm 1 mps 666 mmHg 10%
    17:00 +32°C° 0 mm 1 mps 666 mmHg 11%
    18:00 +29°C° 0 mm 1 mps 665 mmHg 13%
    19:00 +25°C° 0 mm 0 mps 665 mmHg 14%
    20:00 +26°C° 0 mm 1 mps 665 mmHg 18%
    21:00 +25°C° 0 mm 1 mps 666 mmHg 22%
    22:00 +24°C° 0 mm 1 mps 666 mmHg 25%
    23:00 +23°C° 0 mm 1 mps 666 mmHg 37%

    Tomorrow, 22 July, Saturday

    Time Temperature Precipitation Wind Pressure Humidity
    00:00 +21°C° 0 mm 2 mps 666 mmHg 48%
    01:00 +20°C° 0 mm 2 mps 665 mmHg 59%
    02:00 +19°C° 0 mm 2 mps 665 mmHg 67%
    03:00 +18°C° 0 mm 2 mps 665 mmHg 75%
    04:00 +17°C° 0 mm 2 mps 665 mmHg 83%
    05:00 +17°C° 0 mm 2 mps 665 mmHg 84%
    06:00 +17°C° 0 mm 2 mps 666 mmHg 85%
    07:00 +17°C° 0 mm 2 mps 666 mmHg 86%
    08:00 +20°C° 0 mm 2 mps 667 mmHg 73%
    09:00 +24°C° 0 mm 2 mps 668 mmHg 59%
    10:00 +26°C° 0 mm 2 mps 669 mmHg 45%
    11:00 +29°C° 0 mm 2 mps 668 mmHg 36%
    12:00 +32°C° 0 mm 1 mps 668 mmHg 28%
    13:00 +35°C° 0 mm 1 mps 668 mmHg 19%
    14:00 +35°C° 0 mm 1 mps 668 mmHg 18%
    15:00 +34°C° 0 mm 1 mps 667 mmHg 17%
    16:00 +34°C° 0 mm 1 mps 666 mmHg 16%
    17:00 +32°C° 0 mm 2 mps 666 mmHg 21%
    18:00 +29°C° 0 mm 2 mps 666 mmHg 25%
    19:00 +27°C° 0 mm 2 mps 666 mmHg 29%
    20:00 +25°C° 0 mm 2 mps 666 mmHg 36%
    21:00 +24°C° 0 mm 2 mps 666 mmHg 44%
    22:00 +22°C° 0 mm 3 mps 666 mmHg 51%
    23:00 +21°C° 0 mm 2 mps 666 mmHg 55%

    Day after tomorrow, 23 July, Sunday

    Time Temperature Precipitation Wind Pressure Humidity
    00:00 +20°C° 0 mm 2 mps 666 mmHg 59%
    01:00 +19°C° 0 mm 2 mps 665 mmHg 63%
    02:00 +18°C° 0 mm 2 mps 665 mmHg 67%
    03:00 +17°C° 0 mm 2 mps 665 mmHg 71%
    04:00 +17°C° 0 mm 2 mps 664 mmHg 76%
    05:00 +17°C° 0 mm 2 mps 665 mmHg 77%
    06:00 +18°C° 0 mm 1 mps 665 mmHg 78%
    07:00 +16°C° 0 mm 1 mps 666 mmHg 80%
    08:00 +21°C° 0 mm 1 mps 667 mmHg 64%
    09:00 +25°C° 0 mm 1 mps 668 mmHg 49%
    10:00 +29°C° 0 mm 1 mps 669 mmHg 33%
    11:00 +32°C° 0 mm 1 mps 669 mmHg 27%
    12:00 +34°C° 0 mm 1 mps 668 mmHg 21%
    13:00 +36°C° 0 mm 1 mps 668 mmHg 15%
    14:00 +36°C° 0 mm 1 mps 667 mmHg 15%
    15:00 +36°C° 0 mm 1 mps 667 mmHg 14%
    16:00 +35°C° 0 mm 1 mps 666 mmHg 13%
    17:00 +33°C° 0 mm 1 mps 666 mmHg 16%
    18:00 +30°C° 0 mm 1 mps 666 mmHg 19%
    19:00 +28°C° 0 mm 1 mps 666 mmHg 21%
    20:00 +27°C° 0 mm 2 mps 666 mmHg 28%
    21:00 +25°C° 0 mm 2 mps 666 mmHg 36%
    22:00 +24°C° 0 mm 2 mps 666 mmHg 43%
    23:00 +23°C° 0 mm 2 mps 666 mmHg 49%

    24 July, Monday

    Time Temperature Precipitation Wind Pressure Humidity
    00:00 +21°C° 0 mm 2 mps 666 mmHg 55%
    01:00 +20°C° 0 mm 3 mps 665 mmHg 61%
    02:00 +19°C° 0 mm 2 mps 665 mmHg 66%
    03:00 +18°C° 0 mm 2 mps 665 mmHg 71%
    04:00 +17°C° 0 mm 2 mps 665 mmHg 76%
    05:00 +17°C° 0 mm 2 mps 665 mmHg 78%
    06:00 +17°C° 0 mm 2 mps 666 mmHg 80%
    07:00 +16°C° 0 mm 2 mps 666 mmHg 82%
    08:00 +20°C° 0 mm 2 mps 667 mmHg 67%
    09:00 +24°C° 0 mm 2 mps 668 mmHg 53%
    10:00 +28°C° 0 mm 2 mps 669 mmHg 38%
    11:00 +30°C° 0 mm 2 mps 669 mmHg 32%
    12:00 +33°C° 0 mm 1 mps 668 mmHg 25%
    13:00 +35°C° 0 mm 1 mps 668 mmHg 18%
    14:00 +36°C° 0 mm 2 mps 667 mmHg 18%
    15:00 +35°C° 0 mm 2 mps 667 mmHg 18%
    16:00 +35°C° 0 mm 2 mps 666 mmHg 18%
    17:00 +31°C° 0 mm 3 mps 666 mmHg 25%
    18:00 +28°C° 0 mm 3 mps 666 mmHg 33%
    19:00 +26°C° 0 mm 4 mps 666 mmHg 41%
    20:00 +23°C° 0 mm 4 mps 666 mmHg 46%
    21:00 +22°C° 0 mm 4 mps 666 mmHg 52%
    22:00 +20°C° 0 mm 3 mps 667 mmHg 57%
    23:00 +20°C° 0 mm 3 mps 666 mmHg 62%

    25 July, Tuesday

    Time Temperature Precipitation Wind Pressure Humidity
    00:00 +19°C° 0 mm 3 mps 666 mmHg 67%
    01:00 +18°C° 0 mm 3 mps 665 mmHg 72%
    02:00 +17°C° 0 mm 3 mps 665 mmHg 75%
    03:00 +16°C° 0 mm 3 mps 665 mmHg 79%
    04:00 +16°C° 0 mm 3 mps 665 mmHg 82%
    05:00 +16°C° 0 mm 3 mps 665 mmHg 83%
    06:00 +16°C° 0 mm 2 mps 666 mmHg 83%
    07:00 +16°C° 0 mm 2 mps 666 mmHg 84%
    08:00 +19°C° 0 mm 2 mps 667 mmHg 69%
    09:00 +24°C° 0 mm 2 mps 668 mmHg 54%
    10:00 +27°C° 0 mm 2 mps 668 mmHg 39%
    11:00 +30°C° 0 mm 2 mps 668 mmHg 32%
    12:00 +32°C° 0 mm 2 mps 668 mmHg 25%
    13:00 +36°C° 0 mm 2 mps 667 mmHg 18%
    14:00 +35°C° 0 mm 1 mps 667 mmHg 17%
    15:00 +35°C° 0 mm 1 mps 666 mmHg 15%
    16:00 +35°C° 0 mm 1 mps 666 mmHg 14%
    17:00 +32°C° 0 mm 1 mps 666 mmHg 20%
    18:00 +29°C° 0 mm 2 mps 666 mmHg 25%
    19:00 +27°C° 0 mm 2 mps 666 mmHg 30%
    20:00 +25°C° 0 mm 2 mps 666 mmHg 39%
    21:00 +24°C° 0 mm 3 mps 666 mmHg 48%
    22:00 +21°C° 0 mm 3 mps 666 mmHg 57%
    23:00 +20°C° 0 mm 3 mps 665 mmHg 60%

    26 July, Wednesday

    Time Temperature Precipitation Wind Pressure Humidity
    00:00 +19°C° 0 mm 3 mps 665 mmHg 63%
    01:00 +19°C° 0 mm 2 mps 665 mmHg 67%
    02:00 +18°C° 0 mm 2 mps 664 mmHg 71%
    03:00 +17°C° 0 mm 2 mps 664 mmHg 75%
    04:00 +16°C° 0 mm 2 mps 664 mmHg 79%
    05:00 +16°C° 0 mm 2 mps 665 mmHg 79%
    06:00 +16°C° 0 mm 2 mps 665 mmHg 80%
    07:00 +16°C° 0 mm 2 mps 665 mmHg 81%
    08:00 +20°C° 0 mm 2 mps 666 mmHg 64%
    09:00 +25°C° 0 mm 2 mps 667 mmHg 47%
    10:00 +29°C° 0 mm 2 mps 668 mmHg 29%
    11:00 +31°C° 0 mm 2 mps 668 mmHg 24%
    12:00 +34°C° 0 mm 2 mps 667 mmHg 18%
    13:00 +36°C° 0 mm 2 mps 667 mmHg 13%
    14:00 +36°C° 0 mm 2 mps 666 mmHg 12%
    15:00 +36°C° 0 mm 2 mps 666 mmHg 12%
    16:00 +36°C° 0 mm 2 mps 665 mmHg 12%
    17:00 +32°C° 0 mm 2 mps 665 mmHg 14%
    18:00 +30°C° 0 mm 1 mps 665 mmHg 17%
    19:00 +28°C° 0 mm 1 mps 665 mmHg 19%
    20:00 +26°C° 0 mm 2 mps 666 mmHg 26%
    21:00 +25°C° 0 mm 2 mps 666 mmHg 33%
    22:00 +24°C° 0 mm 2 mps 666 mmHg 41%
    23:00 +21°C° 0 mm 2 mps 665 mmHg 48%
    Show more